EW9296 Weather Reports


time (UTC)temp
C
wind
direction
speed
KPH
gust
KPH
rain 1hr
cm
rain 24hr
cm
rain mn
cm
humidity
%
barometer
mb
20260509031546 8 262 0.0 0.0 0.00 0.00 0.00 56 1004.6
20260509030045 8 262 0.0 0.0 0.00 0.00 0.00 53 1004.9
20260509024544 10 262 0.0 0.0 0.00 0.00 0.00 53 1005.1
20260509023043 10 262 0.0 0.0 0.00 0.00 0.00 50 1005.2
20260509021544 11 262 0.0 0.0 0.00 0.00 0.00 50 1005.1
20260509020043 11 262 0.0 0.0 0.00 0.00 0.00 46 1005.1
20260509014543 12 262 0.0 0.0 0.00 0.00 0.00 41 1005.0
20260509013042 13 262 0.0 0.0 0.00 0.00 0.00 36 1005.0
20260509011541 13 262 0.0 0.0 0.00 0.00 0.00 32 1004.9
20260509010041 14 262 0.0 0.0 0.00 0.00 0.00 30 1004.8
20260509004541 15 262 0.0 8.0 0.00 0.00 0.00 29 1004.6
20260509003042 15 264 1.6 9.7 0.00 0.00 0.00 28 1004.5
20260509001541 15 269 1.6 8.0 0.00 0.00 0.00 29 1004.6
20260509000039 15 274 1.6 9.7 0.00 0.00 0.00 27 1004.5
20260508234545 16 298 0.0 8.0 0.00 0.00 0.00 30 1004.5
20260508233040 16 273 1.6 12.9 0.00 0.00 0.00 29 1004.3
20260508231550 16 275 0.0 9.7 0.00 0.00 0.00 27 1004.2
20260508230046 17 269 4.8 11.3 0.00 0.00 0.00 30 1004.2
20260508224535 17 246 0.0 9.7 0.00 0.00 0.00 26 1004.2
20260508223041 17 270 6.4 17.7 0.00 0.00 0.00 27 1004.2
20260508221536 17 261 6.4 12.9 0.00 0.00 0.00 26 1004.3
20260508220037 17 307 4.8 9.7 0.00 0.00 0.00 31 1004.2
20260508214530 18 263 3.2 11.3 0.00 0.00 0.00 32 1004.3
20260508213029 17 259 3.2 12.9 0.00 0.00 0.00 33 1004.4
20260508211530 17 242 3.2 14.5 0.00 0.00 0.00 32 1004.5
20260508210028 17 204 8.0 14.5 0.00 0.00 0.00 31 1004.6
20260508204525 17 269 3.2 14.5 0.00 0.00 0.00 33 1004.7
20260508203026 17 252 0.0 14.5 0.00 0.00 0.00 34 1005.0
20260508201521 17 274 4.8 14.5 0.00 0.00 0.00 33 1005.2
20260508200018 17 273 4.8 12.9 0.00 0.00 0.00 35 1005.6
20260508194516 17 286 6.4 11.3 0.00 0.00 0.00 31 1005.8
20260508193016 17 322 1.6 11.3 0.00 0.00 0.00 35 1006.0
20260508191529 17 277 1.6 12.9 0.00 0.00 0.00 35 1006.2
20260508190011 17 338 0.0 12.9 0.00 0.00 0.00 35 1006.5
20260508184510 17 236 0.0 11.3 0.00 0.00 0.00 38 1006.7
20260508183009 17 334 1.6 14.5 0.00 0.00 0.00 36 1006.8
20260508181506 17 161 1.6 8.0 0.00 0.00 0.00 38 1007.2
20260508180005 16 184 0.0 9.7 0.00 0.00 0.00 35 1007.3
20260508174502 16 314 8.0 19.3 0.00 0.00 0.00 33 1007.6
20260508173059 17 261 1.6 12.9 0.00 0.00 0.00 34 1007.9
20260508171557 17 274 1.6 6.4 0.00 0.00 0.00 34 1008.1
20260508170056 16 264 3.2 14.5 0.00 0.00 0.00 35 1008.3
20260508164600 16 281 3.2 12.9 0.00 0.00 0.00 35 1008.4
20260508163050 16 334 1.6 16.1 0.00 0.00 0.00 36 1008.7
20260508161545 16 265 3.2 11.3 0.00 0.00 0.00 37 1008.8
20260508160042 15 204 0.0 11.3 0.00 0.00 0.00 44 1008.8
20260508154538 15 275 3.2 14.5 0.00 0.00 0.00 45 1009.2
20260508153036 13 94 0.0 6.4 0.00 0.00 0.00 49 1009.2
20260508151529 12 295 0.0 8.0 0.00 0.00 0.00 48 1009.2
20260508150029 12 82 0.0 8.0 0.00 0.00 0.00 48 1009.3
20260508144524 12 276 3.2 9.7 0.00 0.00 0.00 53 1009.5
20260508143020 11 209 0.0 0.0 0.00 0.00 0.00 57 1009.6
20260508141518 11 115 1.6 8.0 0.00 0.00 0.00 55 1009.8
20260508140017 11 173 0.0 0.0 0.00 0.00 0.00 61 1009.8
20260508134514 10 169 0.0 6.4 0.00 0.00 0.00 63 1010.0
20260508133010 10 88 0.0 1.6 0.00 0.00 0.00 66 1010.0
20260508131508 9 155 1.6 9.7 0.00 0.00 0.00 69 1010.1
20260508130005 8 283 0.0 0.0 0.00 0.00 0.00 72 1010.1
20260508124502 6 283 0.0 0.0 0.00 0.00 0.00 83 1010.0
20260508123100 5 283 0.0 0.0 0.00 0.00 0.00 88 1010.0
20260508121558 3 283 0.0 0.0 0.00 0.00 0.00 90 1009.9
20260508120057 2 283 0.0 0.0 0.00 0.00 0.00 91 1009.7
20260508114607 2 283 0.0 0.0 0.00 0.00 0.00 90 1009.7
20260508113103 2 283 0.0 0.0 0.00 0.00 0.00 90 1009.5
20260508111604 1 283 0.0 0.0 0.00 0.00 0.00 90 1009.3
20260508110051 1 283 0.0 0.0 0.00 0.00 0.00 89 1009.3
20260508104550 1 283 0.0 0.0 0.00 0.00 0.00 89 1009.1
20260508103047 1 283 0.0 0.0 0.00 0.00 0.00 88 1009.0
20260508101545 2 283 0.0 0.0 0.00 0.00 0.00 88 1009.1
20260508100044 2 283 0.0 0.0 0.00 0.00 0.00 88 1009.1
20260508094545 2 283 0.0 0.0 0.00 0.00 0.00 87 1009.2
20260508093040 2 283 0.0 0.0 0.00 0.00 0.00 87 1009.2
20260508091547 2 283 0.0 0.0 0.00 0.00 0.00 86 1009.1
20260508090036 3 283 0.0 0.0 0.00 0.00 0.00 85 1009.2
20260508084534 3 283 0.0 0.0 0.00 0.00 0.00 84 1009.2
20260508083031 3 283 0.0 0.0 0.00 0.00 0.00 83 1009.3
20260508081539 3 283 0.0 0.0 0.00 0.00 0.00 81 1009.3
20260508080027 4 283 0.0 0.0 0.00 0.00 0.00 82 1009.4
20260508074527 4 283 0.0 0.0 0.00 0.00 0.00 81 1009.5
20260508073027 4 283 0.0 0.0 0.00 0.00 0.00 80 1009.4
20260508071523 5 283 0.0 0.0 0.00 0.00 0.00 79 1009.5
20260508070020 5 283 0.0 0.0 0.00 0.00 0.00 78 1009.5
20260508064525 5 283 0.0 0.0 0.00 0.00 0.00 77 1009.6
20260508063015 5 283 0.0 0.0 0.00 0.00 0.00 77 1009.8
20260508061513 6 283 0.0 0.0 0.00 0.00 0.00 76 1009.8
20260508060011 6 283 0.0 0.0 0.00 0.00 0.00 76 1009.8
20260508054512 6 283 0.0 0.0 0.00 0.00 0.00 74 1009.9
20260508053009 6 283 0.0 0.0 0.00 0.00 0.00 76 1009.9
20260508051516 6 283 0.0 0.0 0.00 0.00 0.00 74 1009.9
20260508050007 6 283 0.0 0.0 0.00 0.00 0.00 75 1009.8
20260508044505 7 283 0.0 0.0 0.00 0.00 0.00 76 1009.7
20260508043007 7 283 0.0 0.0 0.00 0.00 0.00 75 1009.6
20260508041608 7 283 0.0 0.0 0.00 0.00 0.00 74 1009.5
20260508040058 8 283 0.0 0.0 0.00 0.00 0.00 74 1009.6
20260508034559 8 283 0.0 0.0 0.00 0.00 0.00 73 1009.4
20260508033100 8 283 0.0 0.0 0.00 0.00 0.00 73 1009.6